Location: ?????????
(41.2393°N, 22.9479°E)
Time: 13:20:07
(UTC+00:00)

Cosmos 2344 - Pass Details

Date: 17 November 2025
Orbit: 1197 x 3045 km, 63.3° (Epoch: 06 December)

Event Time Altitude Azimuth Distance (km) Brightness Sun altitude
Rises 18:36:31 0° 322° (NW) 4,335 6.9 -39.2°
Reaches altitude 10° 18:39:04 10° 320° (NW) 3,479 6.3 -39.7°
Maximum altitude 18:47:28 69° 240° (WSW) 1,801 4.2 -41.2°
Enters shadow 18:47:32 69° 237° (WSW) 1,805 4.2 -41.2°
